Location: Noverd
(38.0910°N, 121.6877°W)
Time: 03:51:10
(UTC+00:00)

Cosmos 2227 Rocket - Pass Details

Date: 13 February 2026
Orbit: 836 x 845 km, 71.0° (Epoch: 7 March)

Event Time Altitude Azimuth Distance (km) Brightness Sun altitude
Exits shadow 12:34:13 18° 355° (N) 1,947 4.1 -29.0°
Maximum altitude 12:38:12 49° 63° (ENE) 1,080 3.0 -28.3°
Drops below altitude 10° 12:43:40 10° 138° (SE) 2,459 5.0 -27.2°
Sets 12:46:11 0° 144° (SE) 3,390 5.8 -26.7°
